Regional Weather Roundup
Issued by NWS

Home | Current Version | Previous Version | Graphics & Text | Print | Product List | Glossary On
Versions: 1 2 3 4 5 6 7 8 9 10 11 12 13 14 15 16 17 18 19 20 21 22 23 24 25 26 27 28 29 30 31 32 33 34 35 36 37 38 39 40 41 42 43 44 45 46 47 48 49 50
000
ASUS43 KFSD 180002
RWRSD

WEATHER ROUNDUP FOR SOUTH DAKOTA
NATIONAL WEATHER SERVICE SIOUX FALLS SD
700 PM CDT THU AUG 17 2017

NOTE: "FAIR" INDICATES FEW OR NO CLOUDS BELOW 12,000 FEET WITH NO
SIGNIFICANT WEATHER AND/OR OBSTRUCTIONS TO VISIBILITY.


SDZ001>005-009-010-012>017-180100-
NORTHWEST AND NORTH CENTRAL SOUTH DAKOTA

CITY           SKY/WX    TMP DP  RH WIND       PRES   REMARKS
BUFFALO          N/A     81  41  24 W16       29.87S
FAITH            N/A     83  41  22 NW21      29.90R
$$

SDZ012>016-024>037-041>051-057-063-072>074-180100-
SOUTHWEST AND SOUTH CENTRAL SOUTH DAKOTA

CITY           SKY/WX    TMP DP  RH WIND       PRES   REMARKS
RAPID CTY ARPT CLOUDY    76  46  34 NW17      30.00R
PIERRE         TSTM      73  61  65 SE26      29.77F
CUSTER         LGT RAIN  58  47  66 NE14G24   30.13F
PHILIP         CLOUDY    84  46  26 W3        29.85R
PINE RIDGE     TSTM      73  53  49 S15G35    29.92R
SPEARFISH      FAIR      70  48  46 SW12      30.04F
WINNER         TSTM      85  45  24 SW23G36   29.83F
$$

SDZ004>011-016>023-039-040-180100-
NORTHEAST SOUTH DAKOTA

CITY           SKY/WX    TMP DP  RH WIND       PRES   REMARKS
ABERDEEN       SUNNY     77  60  55 E7        29.87S
WATERTOWN      SUNNY     75  57  53 NW3       29.88S
BROOKINGS      SUNNY     74  61  63 NW3       29.90S
SISSETON         N/A     76  65  68 N5        29.85S
$$

SDZ017-020-022-023-036>040-048>070-180100-
SOUTHEAST SOUTH DAKOTA

CITY           SKY/WX    TMP DP  RH WIND       PRES   REMARKS
SIOUX FALLS    SUNNY     78  60  53 N7        29.89F
HURON          SUNNY     77  61  57 E7        29.86F
CHAMBERLAIN    MOSUNNY   78  65  65 E12       29.83F
MITCHELL       SUNNY     78  62  57 E5        29.88S
YANKTON        SUNNY     81  59  47 CALM      29.90S
$$

ABBREVIATIONS USED IN REMARKS
   TC - TEMPERATURE IN CELSIUS
  WCI - WIND CHILL INDEX
   HX - HEAT INDEX
  VSB - VISIBILITY




USA.gov is the U.S. government's official web portal to all federal, state and local government web resources and services.